TimeEDT,TemperatureF,Dew PointF,Humidity,Sea Level PressureIn,VisibilityMPH,Wind Direction,Wind SpeedMPH,Gust SpeedMPH,PrecipitationIn,Events,Conditions,WindDirDegrees,DateUTC
12:52 AM,66.9,64.9,93,29.62,10.0,WSW,5.8,-,N/A,,Clear,250,2013-06-28 04:52:00
1:52 AM,66.9,64.9,93,29.61,10.0,WSW,6.9,-,N/A,,Clear,240,2013-06-28 05:52:00
2:52 AM,66.9,64.9,93,29.61,7.0,WSW,3.5,-,N/A,,Clear,250,2013-06-28 06:52:00
3:45 AM,66.2,64.4,94,29.64,6.0,NNE,5.8,-,N/A,,Mostly Cloudy,30,2013-06-28 07:45:00
3:52 AM,66.9,64.9,93,29.62,6.0,NNE,6.9,-,N/A,,Overcast,30,2013-06-28 07:52:00
4:52 AM,66.9,64.0,90,29.61,7.0,NNE,3.5,-,N/A,,Partly Cloudy,20,2013-06-28 08:52:00
5:52 AM,64.0,63.0,96,29.60,6.0,Calm,Calm,-,N/A,,Clear,0,2013-06-28 09:52:00
6:52 AM,64.9,64.0,97,29.61,6.0,West,5.8,-,N/A,,Clear,260,2013-06-28 10:52:00
7:23 AM,66.2,64.4,94,29.61,8.0,WNW,3.5,-,N/A,,Mostly Cloudy,300,2013-06-28 11:23:00
7:52 AM,66.9,64.0,90,29.61,10.0,NW,5.8,-,N/A,,Overcast,310,2013-06-28 11:52:00
8:52 AM,68.0,64.9,90,29.60,7.0,NNW,10.4,-,N/A,,Overcast,330,2013-06-28 12:52:00
9:40 AM,71.6,64.4,78,29.61,10.0,WNW,8.1,-,N/A,,Overcast,290,2013-06-28 13:40:00
9:52 AM,71.1,64.0,78,29.60,10.0,NW,9.2,-,N/A,,Mostly Cloudy,320,2013-06-28 13:52:00
10:33 AM,73.4,64.4,73,29.60,10.0,NNW,6.9,-,N/A,,Overcast,330,2013-06-28 14:33:00
10:52 AM,75.0,64.9,71,29.59,10.0,NNW,5.8,-,N/A,,Mostly Cloudy,330,2013-06-28 14:52:00
11:19 AM,75.2,64.4,69,29.60,10.0,Variable,5.8,-,N/A,,Scattered Clouds,0,2013-06-28 15:19:00
11:52 AM,77.0,63.0,62,29.58,10.0,WNW,9.2,-,N/A,,Scattered Clouds,300,2013-06-28 15:52:00
12:52 PM,80.1,62.1,54,29.56,10.0,WNW,12.7,17.3,N/A,,Mostly Cloudy,290,2013-06-28 16:52:00
1:52 PM,80.1,60.1,50,29.55,10.0,West,13.8,20.7,N/A,,Scattered Clouds,270,2013-06-28 17:52:00
2:52 PM,81.0,60.1,49,29.53,10.0,WNW,11.5,-,N/A,,Mostly Cloudy,300,2013-06-28 18:52:00
3:34 PM,73.4,62.6,69,29.54,6.0,NW,9.2,-,0.01,Rain-Thunderstorm,Light Rain,310,2013-06-28 19:34:00
3:52 PM,73.0,62.1,68,29.54,10.0,WNW,8.1,-,0.01,Thunderstorm,Scattered Clouds,300,2013-06-28 19:52:00
4:52 PM,73.9,61.0,64,29.53,10.0,North,10.4,-,N/A,Thunderstorm,Scattered Clouds,10,2013-06-28 20:52:00
5:52 PM,69.1,59.0,70,29.59,10.0,North,11.5,18.4,0.00,Rain,Light Rain,350,2013-06-28 21:52:00
6:52 PM,68.0,62.1,81,29.57,10.0,NW,3.5,-,0.01,Rain,Light Rain,310,2013-06-28 22:52:00
7:52 PM,66.0,60.1,81,29.58,10.0,Calm,Calm,-,0.00,,Partly Cloudy,0,2013-06-28 23:52:00
8:03 PM,66.2,60.8,83,29.59,9.0,NNW,4.6,-,N/A,Thunderstorm,Mostly Cloudy,330,2013-06-29 00:03:00
8:18 PM,66.2,60.8,83,29.59,10.0,NW,3.5,-,0.00,,Mostly Cloudy,320,2013-06-29 00:18:00
8:52 PM,66.0,61.0,84,29.58,10.0,NW,3.5,-,0.00,,Clear,320,2013-06-29 00:52:00
9:52 PM,64.9,60.1,84,29.58,10.0,West,4.6,-,0.00,,Mostly Cloudy,270,2013-06-29 01:52:00
10:52 PM,64.0,60.1,87,29.57,10.0,Calm,Calm,-,N/A,,Clear,0,2013-06-29 02:52:00
11:52 PM,63.0,60.1,90,29.57,10.0,West,4.6,-,N/A,,Clear,270,2013-06-29 03:52:00